Location: Street
(51.1247°N, 2.7429°W)
Time: 22:19:04
(UTC+00:00)

A-11 Canister half - All Passes

Search period start: 25 November 2020 00:00
Search period end: 05 December 2020 00:00
Orbit: 1516 x 1684 km, 47.2° (Epoch: 25 November)

Date Brightness Start Highest point End Pass type
(mag) Time Alt. Az. Time Alt. Az. Time Alt. Az.
25 Nov - 12:01:29 10° SSW 12:09:56 34° SE 12:18:35 10° E daylight
25 Nov - 14:03:56 10° WSW 14:13:45 63° SSE 14:23:44 10° E daylight
25 Nov - 16:08:21 10° W 16:18:24 71° S 16:28:29 10° ESE daylight
25 Nov - 18:13:11 10° W 18:22:45 48° SSW 18:32:15 10° SE visible
25 Nov - 20:19:19 10° W 20:25:53 20° SW 20:32:24 10° S visible
26 Nov - 11:38:48 10° SSW 11:47:06 32° SE 11:55:33 10° E daylight
26 Nov - 13:41:05 10° WSW 13:50:50 62° SSE 14:00:47 10° E daylight
26 Nov - 15:45:26 10° W 15:55:27 72° S 16:05:34 10° ESE daylight
26 Nov - 17:50:15 10° W 17:59:51 50° SSW 18:09:26 10° SE visible
26 Nov - 19:56:11 10° W 20:03:04 21° SW 20:09:55 10° S visible
27 Nov - 11:16:09 10° SSW 11:24:16 30° SE 11:32:33 10° E daylight
27 Nov - 13:18:13 10° SW 13:27:55 60° SSE 13:37:51 10° E daylight
27 Nov - 15:22:30 10° W 15:32:32 72° S 15:42:38 10° ESE daylight
27 Nov - 17:27:17 10° W 17:36:58 52° SSW 17:46:36 10° SE visible
27 Nov - 19:33:05 10° W 19:40:16 22° SW 19:47:24 10° S visible
28 Nov - 10:53:31 10° S 11:01:26 29° SE 11:09:31 10° E daylight
28 Nov - 12:55:22 10° SW 13:05:00 59° SSE 13:14:53 10° E daylight
28 Nov - 14:59:35 10° W 15:09:35 72° S 15:19:42 10° ESE daylight
28 Nov - 17:04:21 10° W 17:14:04 53° SSW 17:23:46 10° SE visible
28 Nov - 19:10:01 10° W 19:17:26 24° SW 19:24:51 10° S visible
29 Nov - 10:30:54 10° S 10:38:36 27° SE 10:46:29 10° E daylight
29 Nov - 12:32:32 10° SW 12:42:06 57° SSE 12:51:56 10° E daylight
29 Nov - 14:36:40 10° W 14:46:39 72° S 14:56:46 10° E daylight
29 Nov - 16:41:26 10° W 16:51:10 55° SSW 17:00:55 10° SE visible
29 Nov - 18:46:56 10° W 18:54:37 25° SW 19:02:16 10° S visible
30 Nov - 10:08:19 10° S 10:15:47 26° SE 10:23:25 10° E daylight
30 Nov - 12:09:42 10° SW 12:19:12 56° SSE 12:28:58 10° E daylight
30 Nov - 14:13:45 10° W 14:23:42 72° S 14:33:50 10° E daylight
30 Nov - 16:18:30 10° W 16:28:15 57° SSW 16:38:04 10° SE daylight
30 Nov - 18:23:54 10° W 18:31:47 27° SW 18:39:40 10° S visible
01 Dec - 09:45:45 10° S 09:52:58 24° SE 10:00:21 10° E daylight
01 Dec - 11:46:52 10° SW 11:56:19 54° SSE 12:06:01 10° E daylight
01 Dec - 13:50:51 10° W 14:00:46 72° S 14:10:54 10° E daylight
01 Dec - 15:55:33 10° W 16:05:20 58° SSW 16:15:12 10° SE daylight
01 Dec - 18:00:52 10° W 18:08:58 28° SW 18:17:02 10° S visible
02 Dec - 09:23:13 10° S 09:30:10 23° SE 09:37:16 10° E daylight
02 Dec - 11:24:04 10° SW 11:33:25 52° SSE 11:43:04 10° E daylight
02 Dec - 13:27:57 10° WSW 13:37:50 72° S 13:47:57 10° E daylight
02 Dec - 15:32:37 10° W 15:42:26 59° SSW 15:52:20 10° SE daylight
02 Dec - 17:37:51 10° W 17:46:07 30° SW 17:54:23 10° SSE visible
03 Dec - 09:00:43 10° S 09:07:22 21° SE 09:14:09 10° E daylight
03 Dec - 11:01:16 10° SW 11:10:32 51° SSE 11:20:06 10° E daylight
03 Dec - 13:05:03 10° WSW 13:14:54 72° S 13:25:01 10° E daylight
03 Dec - 15:09:42 10° W 15:19:30 61° SSW 15:29:27 10° ESE daylight
03 Dec - 17:14:51 10° W 17:23:16 31° SW 17:31:42 10° SSE visible
04 Dec - 08:38:15 10° S 08:44:34 20° SE 08:51:01 10° E daylight
04 Dec - 10:38:29 10° SW 10:47:40 49° SSE 10:57:09 10° E daylight
04 Dec - 12:42:09 10° WSW 12:51:58 71° S 13:02:03 10° E daylight
04 Dec - 14:46:46 10° W 14:56:36 62° SSW 15:06:33 10° ESE daylight
04 Dec - 16:51:51 10° W 17:00:25 33° SW 17:09:01 10° SSE visible
